This demonstration page uses our WeatherBlox Daily Observations layout. Learn more.

Left ArrowRight Arrow

53.62937, 11.41316

Hourly Observations for November 20, 2020

Temp ( °F °C ) Dew Point ( °F °C ) Humidity (%) Winds ( mph kmh ) Pressure ( in mb ) Visibility ( mi km ) Precip ( " mm )
6:50 am 06:50 Mostly Clear 36 2 34 1 93 93 SW 6 9 30.33 1027 7 11 N/A
7:20 am 07:20 Mostly Clear 36 2 34 1 93 93 SW 7 11 30.33 1027 7 11 N/A
7:50 am 07:50 Mostly Clear 37 3 34 1 87 87 SW 8 13 30.33 1027 7 11 N/A
8:20 am 08:20 Mostly Sunny 37 3 34 1 87 87 SW 7 11 30.36 1028 7 11 N/A
8:50 am 08:50 Mostly Sunny 37 3 36 2 93 93 SW 6 9 30.36 1028 7 11 N/A
9:20 am 09:20 Mostly Sunny 39 4 36 2 87 87 SW 7 11 30.36 1028 7 11 N/A
9:50 am 09:50 Mostly Sunny 39 4 36 2 87 87 SW 8 13 30.39 1029 7 11 N/A
10:20 am 10:20 Mostly Sunny 41 5 36 2 81 81 SW 9 15 30.39 1029 7 11 N/A
10:50 am 10:50 Mostly Sunny 41 5 36 2 81 81 WSW 8 13 30.39 1029 7 11 N/A
11:20 am 11:20 Mostly Sunny 43 6 34 1 71 71 WSW 8 13 30.42 1030 7 11 N/A
11:50 am 11:50 Mostly Sunny 43 6 34 1 71 71 SW 8 13 30.42 1030 7 11 N/A
12:20 pm 12:20 Mostly Sunny 45 7 34 1 66 66 WSW 8 13 30.42 1030 30 48 N/A
12:50 pm 12:50 Mostly Sunny 45 7 34 1 66 66 WSW 7 11 30.42 1030 30 48 N/A
1:20 pm 13:20 Mostly Sunny 45 7 34 1 66 66 SW 7 11 30.42 1030 30 48 N/A
1:50 pm 13:50 Mostly Sunny 45 7 34 1 66 66 SW 8 13 30.42 1030 30 48 N/A
2:20 pm 14:20 Mostly Sunny 45 7 34 1 66 66 SW 6 9 30.42 1030 30 48 N/A
2:50 pm 14:50 Mostly Sunny 45 7 34 1 66 66 SW 8 13 30.42 1030 30 48 N/A
3:20 pm 15:20 Mostly Sunny 43 6 34 1 71 71 SW 8 13 30.45 1031 30 48 N/A
3:50 pm 15:50 Mostly Sunny 43 6 34 1 71 71 SW 7 11 30.45 1031 30 48 N/A
4:20 pm 16:20 Mostly Clear 39 4 34 1 81 81 SW 5 7 30.45 1031 7 11 N/A
4:50 pm 16:50 Mostly Clear 39 4 36 2 87 87 SW 5 7 30.48 1032 7 11 N/A
5:20 pm 17:20 Mostly Clear 37 3 36 2 93 93 SW 2 4 30.48 1032 7 11 N/A
5:50 pm 17:50 Mostly Clear 37 3 36 2 93 93 SW 2 4 30.48 1032 7 11 N/A
6:20 pm 18:20 Mostly Clear 37 3 36 2 93 93 VRB 1 2 30.48 1032 7 11 N/A
6:50 pm 18:50 Mostly Clear 37 3 36 2 93 93 VRB 1 2 30.48 1032 7 11 N/A
7:20 pm 19:20 Mostly Clear 37 3 36 2 93 93 VRB 2 4 30.48 1032 7 11 N/A
7:50 pm 19:50 Mostly Clear 37 3 36 2 93 93 SSW 3 6 30.48 1032 30 48 N/A
8:20 pm 20:20 Partly Cloudy 37 3 36 2 93 93 SSW 5 7 30.48 1032 30 48 N/A
8:50 pm 20:50 Mostly Cloudy 37 3 36 2 93 93 S 5 7 30.48 1032 30 48 N/A
9:20 pm 21:20 Mostly Cloudy 37 3 37 3 100 100 S 5 7 30.48 1032 30 48 N/A
9:50 pm 21:50 Mostly Cloudy 37 3 36 2 93 93 SSW 6 9 30.48 1032 30 48 N/A

Powered by AerisWeather